﻿測定場所 (Monitoring sites),日付 (Measurement date),時間 (Measurement time),線量率 最大値 (max) μGy/h,線量率 最小値 (min) μGy/h,線量率 平均値 (average) μGy/h,
江戸川 (Edogawa),2015-11-15,23:01～24:00,0.0607,0.0543,0.0578,
江戸川 (Edogawa),2015-11-15,22:01～23:00,0.0621,0.0554,0.0582,
江戸川 (Edogawa),2015-11-15,21:01～22:00,0.0629,0.0550,0.0578,
江戸川 (Edogawa),2015-11-15,20:01～21:00,0.0615,0.0557,0.0582,
江戸川 (Edogawa),2015-11-15,19:01～20:00,0.0615,0.0550,0.0583,
江戸川 (Edogawa),2015-11-15,18:01～19:00,0.0634,0.0552,0.0584,
江戸川 (Edogawa),2015-11-15,17:01～18:00,0.0613,0.0542,0.0583,
江戸川 (Edogawa),2015-11-15,16:01～17:00,0.0605,0.0545,0.0581,
江戸川 (Edogawa),2015-11-15,15:01～16:00,0.0608,0.0542,0.0583,
江戸川 (Edogawa),2015-11-15,14:01～15:00,0.0625,0.0544,0.0582,
江戸川 (Edogawa),2015-11-15,13:01～14:00,0.0614,0.0547,0.0583,
江戸川 (Edogawa),2015-11-15,12:01～13:00,0.0610,0.0554,0.0584,
江戸川 (Edogawa),2015-11-15,11:01～12:00,0.0640,0.0555,0.0584,
江戸川 (Edogawa),2015-11-15,10:01～11:00,0.0625,0.0555,0.0593,
江戸川 (Edogawa),2015-11-15,09:01～10:00,0.0642,0.0570,0.0607,
江戸川 (Edogawa),2015-11-15,08:01～09:00,0.0681,0.0588,0.0619,
江戸川 (Edogawa),2015-11-15,07:01～08:00,0.0643,0.0582,0.0614,
江戸川 (Edogawa),2015-11-15,06:01～07:00,0.0642,0.0574,0.0608,
江戸川 (Edogawa),2015-11-15,05:01～06:00,0.0650,0.0577,0.0613,
江戸川 (Edogawa),2015-11-15,04:01～05:00,0.0654,0.0563,0.0609,
江戸川 (Edogawa),2015-11-15,03:01～04:00,0.0627,0.0563,0.0598,
江戸川 (Edogawa),2015-11-15,02:01～03:00,0.0633,0.0542,0.0589,
江戸川 (Edogawa),2015-11-15,01:01～02:00,0.0637,0.0568,0.0599,
江戸川 (Edogawa),2015-11-15,00:01～01:00,0.0628,0.0568,0.0599,
江戸川 (Edogawa),2015-11-14,23:01～24:00,0.0622,0.0571,0.0598,
江戸川 (Edogawa),2015-11-14,22:01～23:00,0.0639,0.0582,0.0608,
江戸川 (Edogawa),2015-11-14,21:01～22:00,0.0657,0.0583,0.0628,
江戸川 (Edogawa),2015-11-14,20:01～21:00,0.0670,0.0594,0.0630,
江戸川 (Edogawa),2015-11-14,19:01～20:00,0.0674,0.0601,0.0637,
江戸川 (Edogawa),2015-11-14,18:01～19:00,0.0673,0.0593,0.0626,
江戸川 (Edogawa),2015-11-14,17:01～18:00,0.0640,0.0567,0.0602,
江戸川 (Edogawa),2015-11-14,16:01～17:00,0.0645,0.0565,0.0594,
江戸川 (Edogawa),2015-11-14,15:01～16:00,0.0630,0.0547,0.0594,
江戸川 (Edogawa),2015-11-14,14:01～15:00,0.0637,0.0567,0.0599,
江戸川 (Edogawa),2015-11-14,13:01～14:00,0.0635,0.0560,0.0598,
江戸川 (Edogawa),2015-11-14,12:01～13:00,0.0637,0.0574,0.0606,
江戸川 (Edogawa),2015-11-14,11:01～12:00,0.0637,0.0569,0.0598,
江戸川 (Edogawa),2015-11-14,10:01～11:00,0.0645,0.0561,0.0606,
江戸川 (Edogawa),2015-11-14,09:01～10:00,0.0638,0.0580,0.0606,
江戸川 (Edogawa),2015-11-14,08:01～09:00,0.0638,0.0556,0.0597,
江戸川 (Edogawa),2015-11-14,07:01～08:00,0.0643,0.0559,0.0589,
江戸川 (Edogawa),2015-11-14,06:01～07:00,0.0633,0.0545,0.0589,
江戸川 (Edogawa),2015-11-14,05:01～06:00,0.0622,0.0564,0.0594,
江戸川 (Edogawa),2015-11-14,04:01～05:00,0.0622,0.0562,0.0591,
江戸川 (Edogawa),2015-11-14,03:01～04:00,0.0613,0.0562,0.0593,
江戸川 (Edogawa),2015-11-14,02:01～03:00,0.0619,0.0556,0.0590,
江戸川 (Edogawa),2015-11-14,01:01～02:00,0.0617,0.0560,0.0594,
江戸川 (Edogawa),2015-11-14,00:01～01:00,0.0634,0.0547,0.0599,
江戸川 (Edogawa),2015-11-13,23:01～24:00,0.0614,0.0560,0.0587,
江戸川 (Edogawa),2015-11-13,22:01～23:00,0.0619,0.0558,0.0589,
江戸川 (Edogawa),2015-11-13,21:01～22:00,0.0628,0.0560,0.0585,
江戸川 (Edogawa),2015-11-13,20:01～21:00,0.0616,0.0560,0.0589,
江戸川 (Edogawa),2015-11-13,19:01～20:00,0.0625,0.0545,0.0590,
江戸川 (Edogawa),2015-11-13,18:01～19:00,0.0632,0.0557,0.0591,
江戸川 (Edogawa),2015-11-13,17:01～18:00,0.0626,0.0562,0.0595,
江戸川 (Edogawa),2015-11-13,16:01～17:00,0.0634,0.0559,0.0595,
江戸川 (Edogawa),2015-11-13,15:01～16:00,0.0629,0.0552,0.0592,
江戸川 (Edogawa),2015-11-13,14:01～15:00,0.0624,0.0555,0.0599,
江戸川 (Edogawa),2015-11-13,13:01～14:00,0.0631,0.0560,0.0599,
江戸川 (Edogawa),2015-11-13,12:01～13:00,0.0629,0.0537,0.0598,
江戸川 (Edogawa),2015-11-13,11:01～12:00,0.0627,0.0566,0.0597,
江戸川 (Edogawa),2015-11-13,10:01～11:00,0.0640,0.0563,0.0599,
江戸川 (Edogawa),2015-11-13,09:01～10:00,0.0632,0.0565,0.0598,
江戸川 (Edogawa),2015-11-13,08:01～09:00,0.0620,0.0553,0.0595,
江戸川 (Edogawa),2015-11-13,07:01～08:00,0.0655,0.0570,0.0597,
江戸川 (Edogawa),2015-11-13,06:01～07:00,0.0627,0.0568,0.0596,
江戸川 (Edogawa),2015-11-13,05:01～06:00,0.0626,0.0548,0.0591,
江戸川 (Edogawa),2015-11-13,04:01～05:00,0.0632,0.0561,0.0596,
江戸川 (Edogawa),2015-11-13,03:01～04:00,0.0626,0.0550,0.0590,
江戸川 (Edogawa),2015-11-13,02:01～03:00,0.0637,0.0568,0.0597,
江戸川 (Edogawa),2015-11-13,01:01～02:00,0.0629,0.0556,0.0597,
江戸川 (Edogawa),2015-11-13,00:01～01:00,0.0631,0.0567,0.0597,
江戸川 (Edogawa),2015-11-12,23:01～24:00,0.0622,0.0549,0.0589,
江戸川 (Edogawa),2015-11-12,22:01～23:00,0.0623,0.0538,0.0589,
江戸川 (Edogawa),2015-11-12,21:01～22:00,0.0622,0.0561,0.0592,
江戸川 (Edogawa),2015-11-12,20:01～21:00,0.0622,0.0551,0.0590,
江戸川 (Edogawa),2015-11-12,19:01～20:00,0.0619,0.0560,0.0588,
江戸川 (Edogawa),2015-11-12,18:01～19:00,0.0626,0.0559,0.0588,
江戸川 (Edogawa),2015-11-12,17:01～18:00,0.0620,0.0565,0.0593,
江戸川 (Edogawa),2015-11-12,16:01～17:00,0.0616,0.0562,0.0590,
江戸川 (Edogawa),2015-11-12,15:01～16:00,0.0630,0.0564,0.0594,
江戸川 (Edogawa),2015-11-12,14:01～15:00,0.0629,0.0551,0.0594,
江戸川 (Edogawa),2015-11-12,13:01～14:00,0.0635,0.0555,0.0597,
江戸川 (Edogawa),2015-11-12,12:01～13:00,0.0618,0.0560,0.0589,
江戸川 (Edogawa),2015-11-12,11:01～12:00,0.0642,0.0541,0.0593,
江戸川 (Edogawa),2015-11-12,10:01～11:00,0.0618,0.0551,0.0592,
江戸川 (Edogawa),2015-11-12,09:01～10:00,0.0623,0.0555,0.0590,
江戸川 (Edogawa),2015-11-12,08:01～09:00,0.0622,0.0563,0.0591,
江戸川 (Edogawa),2015-11-12,07:01～08:00,0.0621,0.0559,0.0591,
江戸川 (Edogawa),2015-11-12,06:01～07:00,0.0630,0.0564,0.0591,
江戸川 (Edogawa),2015-11-12,05:01～06:00,0.0623,0.0569,0.0589,
江戸川 (Edogawa),2015-11-12,04:01～05:00,0.0625,0.0549,0.0587,
江戸川 (Edogawa),2015-11-12,03:01～04:00,0.0628,0.0546,0.0593,
江戸川 (Edogawa),2015-11-12,02:01～03:00,0.0638,0.0563,0.0593,
江戸川 (Edogawa),2015-11-12,01:01～02:00,0.0622,0.0557,0.0591,
江戸川 (Edogawa),2015-11-12,00:01～01:00,0.0626,0.0562,0.0590,
江戸川 (Edogawa),2015-11-11,23:01～24:00,0.0624,0.0550,0.0585,
江戸川 (Edogawa),2015-11-11,22:01～23:00,0.0624,0.0554,0.0586,
江戸川 (Edogawa),2015-11-11,21:01～22:00,0.0627,0.0556,0.0585,
江戸川 (Edogawa),2015-11-11,20:01～21:00,0.0616,0.0541,0.0583,
江戸川 (Edogawa),2015-11-11,19:01～20:00,0.0623,0.0559,0.0589,
江戸川 (Edogawa),2015-11-11,18:01～19:00,0.0644,0.0550,0.0594,
江戸川 (Edogawa),2015-11-11,17:01～18:00,0.0629,0.0556,0.0593,
江戸川 (Edogawa),2015-11-11,16:01～17:00,0.0621,0.0556,0.0595,
江戸川 (Edogawa),2015-11-11,15:01～16:00,0.0639,0.0559,0.0593,
江戸川 (Edogawa),2015-11-11,14:01～15:00,0.0628,0.0560,0.0594,
江戸川 (Edogawa),2015-11-11,13:01～14:00,0.0627,0.0565,0.0593,
江戸川 (Edogawa),2015-11-11,12:01～13:00,0.0631,0.0566,0.0593,
江戸川 (Edogawa),2015-11-11,11:01～12:00,0.0624,0.0554,0.0591,
江戸川 (Edogawa),2015-11-11,10:01～11:00,0.0636,0.0570,0.0595,
江戸川 (Edogawa),2015-11-11,09:01～10:00,0.0633,0.0555,0.0592,
江戸川 (Edogawa),2015-11-11,08:01～09:00,0.0629,0.0547,0.0587,
江戸川 (Edogawa),2015-11-11,07:01～08:00,0.0620,0.0548,0.0582,
江戸川 (Edogawa),2015-11-11,06:01～07:00,0.0611,0.0556,0.0581,
江戸川 (Edogawa),2015-11-11,05:01～06:00,0.0628,0.0557,0.0586,
江戸川 (Edogawa),2015-11-11,04:01～05:00,0.0623,0.0555,0.0581,
江戸川 (Edogawa),2015-11-11,03:01～04:00,0.0642,0.0549,0.0582,
江戸川 (Edogawa),2015-11-11,02:01～03:00,0.0619,0.0547,0.0581,
江戸川 (Edogawa),2015-11-11,01:01～02:00,0.0631,0.0543,0.0586,
江戸川 (Edogawa),2015-11-11,00:01～01:00,0.0615,0.0552,0.0584,
江戸川 (Edogawa),2015-11-10,23:01～24:00,0.0620,0.0548,0.0588,
江戸川 (Edogawa),2015-11-10,22:01～23:00,0.0626,0.0567,0.0593,
江戸川 (Edogawa),2015-11-10,21:01～22:00,0.0634,0.0562,0.0592,
江戸川 (Edogawa),2015-11-10,20:01～21:00,0.0626,0.0552,0.0600,
江戸川 (Edogawa),2015-11-10,19:01～20:00,0.0688,0.0604,0.0635,
江戸川 (Edogawa),2015-11-10,18:01～19:00,0.0739,0.0635,0.0696,
江戸川 (Edogawa),2015-11-10,17:01～18:00,0.0732,0.0637,0.0676,
江戸川 (Edogawa),2015-11-10,16:01～17:00,0.0715,0.0622,0.0662,
江戸川 (Edogawa),2015-11-10,15:01～16:00,0.0686,0.0614,0.0648,
江戸川 (Edogawa),2015-11-10,14:01～15:00,0.0682,0.0587,0.0640,
江戸川 (Edogawa),2015-11-10,13:01～14:00,0.0637,0.0559,0.0596,
江戸川 (Edogawa),2015-11-10,12:01～13:00,0.0632,0.0560,0.0599,
江戸川 (Edogawa),2015-11-10,11:01～12:00,0.0650,0.0574,0.0610,
江戸川 (Edogawa),2015-11-10,10:01～11:00,0.0673,0.0605,0.0639,
江戸川 (Edogawa),2015-11-10,09:01～10:00,0.0666,0.0590,0.0633,
江戸川 (Edogawa),2015-11-10,08:01～09:00,0.0668,0.0597,0.0629,
江戸川 (Edogawa),2015-11-10,07:01～08:00,0.0704,0.0612,0.0657,
江戸川 (Edogawa),2015-11-10,06:01～07:00,0.0701,0.0597,0.0646,
江戸川 (Edogawa),2015-11-10,05:01～06:00,0.0674,0.0592,0.0633,
江戸川 (Edogawa),2015-11-10,04:01～05:00,0.0651,0.0575,0.0609,
江戸川 (Edogawa),2015-11-10,03:01～04:00,0.0638,0.0568,0.0607,
江戸川 (Edogawa),2015-11-10,02:01～03:00,0.0642,0.0572,0.0608,
江戸川 (Edogawa),2015-11-10,01:01～02:00,0.0648,0.0576,0.0611,
江戸川 (Edogawa),2015-11-10,00:01～01:00,0.0638,0.0586,0.0614,
江戸川 (Edogawa),2015-11-09,23:01～24:00,0.0646,0.0562,0.0611,
江戸川 (Edogawa),2015-11-09,22:01～23:00,0.0630,0.0565,0.0601,
江戸川 (Edogawa),2015-11-09,21:01～22:00,0.0638,0.0566,0.0601,
江戸川 (Edogawa),2015-11-09,20:01～21:00,0.0635,0.0565,0.0604,
江戸川 (Edogawa),2015-11-09,19:01～20:00,0.0647,0.0570,0.0604,
江戸川 (Edogawa),2015-11-09,18:01～19:00,0.0647,0.0584,0.0605,
江戸川 (Edogawa),2015-11-09,17:01～18:00,0.0639,0.0561,0.0604,
江戸川 (Edogawa),2015-11-09,16:01～17:00,0.0632,0.0562,0.0591,
江戸川 (Edogawa),2015-11-09,15:01～16:00,0.0622,0.0560,0.0591,
江戸川 (Edogawa),2015-11-09,14:01～15:00,0.0619,0.0562,0.0588,
江戸川 (Edogawa),2015-11-09,13:01～14:00,0.0633,0.0552,0.0587,
江戸川 (Edogawa),2015-11-09,12:01～13:00,0.0626,0.0557,0.0589,
江戸川 (Edogawa),2015-11-09,11:01～12:00,0.0618,0.0564,0.0589,
江戸川 (Edogawa),2015-11-09,10:01～11:00,0.0643,0.0554,0.0595,
江戸川 (Edogawa),2015-11-09,09:01～10:00,0.0624,0.0560,0.0593,
江戸川 (Edogawa),2015-11-09,08:01～09:00,0.0620,0.0557,0.0591,
江戸川 (Edogawa),2015-11-09,07:01～08:00,0.0627,0.0553,0.0593,
江戸川 (Edogawa),2015-11-09,06:01～07:00,0.0630,0.0573,0.0601,
江戸川 (Edogawa),2015-11-09,05:01～06:00,0.0624,0.0562,0.0590,
江戸川 (Edogawa),2015-11-09,04:01～05:00,0.0619,0.0557,0.0590,
江戸川 (Edogawa),2015-11-09,03:01～04:00,0.0622,0.0557,0.0590,
江戸川 (Edogawa),2015-11-09,02:01～03:00,0.0632,0.0561,0.0600,
江戸川 (Edogawa),2015-11-09,01:01～02:00,0.0638,0.0554,0.0599,
江戸川 (Edogawa),2015-11-09,00:01～01:00,0.0645,0.0563,0.0600,
